Regional Weather Roundup
Issued by NWS

Home | Current Version | Previous Version | Graphics & Text | Print | Product List | Glossary On
Versions: 1 2 3 4 5 6 7 8 9 10 11 12 13 14 15 16 17 18 19 20 21 22 23 24 25 26 27 28 29 30 31 32 33 34 35 36 37 38 39 40 41 42 43 44 45 46 47 48 49 50
000
ASUS43 KDMX 031507
RWRIA

WEATHER ROUNDUP FOR IOWA
NATIONAL WEATHER SERVICE DES MOINES IA
1000 AM CDT MON AUG 03 2015

NOTE: "FAIR" INDICATES FEW OR NO CLOUDS BELOW 12,000 FEET WITH NO
SIGNIFICANT WEATHER AND/OR OBSTRUCTIONS TO VISIBILITY.

* - THESE STATIONS ARE NOT NWS STATIONS...THUS NOT UNDER NWS
QUALITY CONTROL.  THEY ALSO DO NOT REPORT WEATHER SUCH
AS PRECIPITATION OR FOG.

IAZ001>003-012>014-020>022-031>034-043>046-031600-
   NORTHWEST IOWA

CITY           SKY/WX    TMP DP  RH WIND       PRES   REMARKS
CARROLL *      SUNNY     72  61  68 CALM      29.99R
CHEROKEE *     SUNNY     72  63  73 CALM      30.00S
DENISON *      SUNNY     73  61  64 N3        29.98S
LE MARS *      SUNNY     72  59  64 CALM      30.00F
ORANGE CITY *  SUNNY     70  55  60 SW5       30.00F
SHELDON *      SUNNY     70  59  68 VRB5      30.00R
SPENCER        SUNNY     72  54  53 SW6       30.00R
STORM LAKE *   SUNNY     72  59  64 CALM      30.01S
$$

IAZ055>058-069>071-079>083-090>094-031600-
   SOUTHWEST IOWA

CITY           SKY/WX    TMP DP  RH WIND       PRES   REMARKS
ATLANTIC *     SUNNY     73  61  64 SE6       30.00R
AUDUBON *      SUNNY     73  63  68 CALM      30.01R
CLARINDA *     CLOUDY    72  63  73 CALM      30.01R
COUNCIL BLFS * SUNNY     73  63  68 VRB6      30.01R
CRESTON *      PTSUNNY   72  59  64 E6        30.01R
HARLAN  *      SUNNY     73  66  78 SE3       30.03S
LAMONI         LGT RAIN  74  59  59 NE7       29.98S
RED OAK *      CLOUDY    73  63  68 E7        30.00R
SHENANDOAH *   CLOUDY    73  64  73 NE6       30.00R
$$

IAZ047>049-059>061-072>074-084-031600-
   CENTRAL IOWA

CITY           SKY/WX    TMP DP  RH WIND       PRES   REMARKS
AMES           SUNNY     73  57  57 N6        29.98R
ANKENY *       SUNNY     73  57  56 CALM      29.97R
CHARITON *     SUNNY     73  57  56 NE7       29.97S
DES MOINES     MOSUNNY   76  52  43 CALM      29.97R
GRINNELL*      SUNNY     72  57  60 CALM      29.97R
KNOXVILLE *    PTSUNNY   72  55  56 CALM      29.96R
MARSHALLTOWN   SUNNY     71  59  65 CALM      29.96R
PELLA *        SUNNY     73  61  64 CALM      29.98R
PERRY *          N/A     72  61  68 CALM      29.99R
$$

IAZ004>006-015-016-023>025-035-036-031600-
   NORTH CENTRAL IOWA

CITY           SKY/WX    TMP DP  RH WIND       PRES   REMARKS
ALGONA *       SUNNY     72  55  56 W7        29.98S
CLARION *      SUNNY     70  59  68 CALM      29.97S
ESTHERVILLE    SUNNY     71  55  56 VRB5      29.98S
FORT DODGE *   SUNNY     72  57  60 CALM      30.00R
MASON CITY     SUNNY     72  58  61 W8        29.97S
FOREST CITY *  SUNNY     70  55  60 W6        29.97R
IOWA FALLS *     N/A     70  55  60 CALM      29.98R
$$

IAZ007>011-017>019-026>030-037>042-050>054-066-031600-
   NORTHEAST IOWA

CITY           SKY/WX    TMP DP  RH WIND       PRES   REMARKS
CEDAR RAPIDS   SUNNY     71  60  68 N5        29.93R
CHARLES CITY * SUNNY     70  57  64 W6        29.95S
CLINTON *      SUNNY     73  54  49 N8        29.93S
DECORAH *      SUNNY     70  54  56 W6        29.92S
DUBUQUE        SUNNY     73  51  46 NW9       29.92R
MONTICELLO *   SUNNY     73  55  53 NW3       29.92S
OELWEIN *      SUNNY     72  59  64 NW6       29.94S
WATERLOO       SUNNY     72  58  61 CALM      29.94R
$$

IAZ064-065-067-068-078-031600-
   EAST CENTRAL IOWA

CITY           SKY/WX    TMP DP  RH WIND       PRES   REMARKS
DAVENPORT      SUNNY     75  57  53 NE7       29.92R
IOWA CITY      SUNNY     75  54  47 VRB6      29.94R
MT. PLEASANT * SUNNY     77  54  44 N8        29.94R
MUSCATINE *    SUNNY     75  54  46 VRB7G13   29.92S
QUAD CITIES    SUNNY     76  53  44 N9        29.90R
$$

IAZ062-063-075>077-085>089-095>099-031600-
   SOUTHEAST IOWA

CITY           SKY/WX    TMP DP  RH WIND       PRES   REMARKS
BURLINGTON     SUNNY     76  61  59 VRB7      29.93R
FAIRFIELD *    MOSUNNY   73  61  64 N8        29.94F
FORT MADISON * SUNNY     73  64  73 NE8       29.93S
KEOKUK *       SUNNY     75  63  64 N8        29.93R
OSKALOOSA *      N/A     72  61  68 CALM      29.96S
CENTERVILLE *  MOSUNNY   73  61  64 N5        29.97S
OTTUMWA        MOSUNNY   72  60  66 N8        29.93S
WASHINGTON *   SUNNY     73  59  60 VRB3      29.95S
$$

ABBREVIATIONS USED IN REMARKS
   TC - TEMPERATURES IN CELSIUS
  WCI - WIND CHILL INDEX
   HX - HEAT INDEX
  VSB - VISIBILITY
$$



USA.gov is the U.S. government's official web portal to all federal, state and local government web resources and services.